Winchester, VA

2:35 AM EDT on September 25, 2017 (GMT -0400)
Winchester Regional

Weather History for KOKV - April, 2014

Change the Weather History Date:

Wednesday, April 30, 2014

  Actual Average Record
Temperature  
Mean Temperature 50 °F -  
Max Temperature 53 °F 70 °F 82 °F (2007)
Min Temperature 46 °F 47 °F 37 °F (2006)
Degree Days  
Heating Degree Days 16    
Moisture  
Dew Point 48 °F    
Average Humidity 97    
Maximum Humidity 100    
Minimum Humidity 93    
Precipitation  
Precipitation 0.47 in - - ()
Sea Level Pressure  
Sea Level Pressure 30.01 in    
Wind  
Wind Speed 3 mph (NNE)    
Max Wind Speed 8 mph    
Max Gust Speed -    
Visibility 4 miles    
Events Fog , Rain , Thunderstorm    
Averages and records for this station are not official NWS values.
T = Trace of Precipitation, MM = Missing Value Source: NWS Daily Summary

Daily Weather History Graph

Daily Weather History Graph

Search for Another Location

Airport or City:

Trip Planner

Search our weather history database for the weather conditions in past years. The results will help you decide how hot, cold, wet, or windy it might be!

Date:

Astronomy

Apr. 30, 2014 Rise Set
Actual Time 6:15 AM EDT 8:04 PM EDT
Civil Twilight 5:46 AM EDT 8:33 PM EDT
Nautical Twilight 5:11 AM EDT 9:08 PM EDT
Astronomical Twilight 4:34 AM EDT 9:46 PM EDT
Moon 7:15 AM EDT (4/30) 9:41 PM EDT (4/30)
Length of Visible Light 14h 46m
Length of Day
13h 49m
New Moon, 2% of the Moon is Illuminated
Apr 30
New Moon
May 6
First Quarter
May 14
Full
May 21
Last Quarter
May 28
New

Hourly Weather History & Observations

Time (EDT) Temp. Windchill Dew Point Humidity Pressure Visibility Wind Dir Wind Speed Gust Speed Precip Events Conditions
12:15 AM 46.4 °F - 46.4 °F 100% 30.17 in 3.0 mi Calm Calm - 0.01 in Rain Rain
12:35 AM 46.4 °F 43.5 °F 46.4 °F 100% 30.16 in 2.0 mi East 5.8 mph - 0.09 in Rain Rain
12:55 AM 46.4 °F 45.2 °F 46.4 °F 100% 30.16 in 10.0 mi NNE 3.5 mph - 0.09 in Rain Light Rain
1:15 AM 46.4 °F 44.3 °F 46.4 °F 100% 30.15 in 4.0 mi NNE 4.6 mph - 0.01 in Rain Light Rain
1:35 AM 46.4 °F 45.2 °F 46.4 °F 100% 30.15 in 4.0 mi NNE 3.5 mph - 0.01 in   Overcast
1:55 AM 46.4 °F 43.5 °F 46.4 °F 100% 30.14 in 3.0 mi NE 5.8 mph - 0.01 in   Overcast
2:15 AM 46.4 °F 43.5 °F 46.4 °F 100% 30.13 in 3.0 mi NNE 5.8 mph - N/A   Drizzle
2:35 AM 46.4 °F 45.2 °F 44.6 °F 93% 30.13 in 2.5 mi NNW 3.5 mph - 0.05 in Rain Rain
2:55 AM 46.4 °F 45.2 °F 44.6 °F 93% 30.13 in 7.0 mi NNE 3.5 mph - 0.07 in Rain Light Rain
3:15 AM 46.4 °F 45.2 °F 44.6 °F 93% 30.12 in 3.0 mi NNE 3.5 mph - 0.01 in Rain Rain
3:35 AM 46.4 °F 44.3 °F 44.6 °F 93% 30.12 in 5.0 mi NE 4.6 mph - 0.03 in Rain Light Rain
3:55 AM 46.4 °F 45.2 °F 44.6 °F 93% 30.11 in 7.0 mi NE 3.5 mph - 0.04 in Rain Light Rain
4:15 AM 46.4 °F 44.3 °F 44.6 °F 93% 30.11 in 5.0 mi NNE 4.6 mph - 0.01 in Rain Heavy Rain
4:35 AM 46.4 °F 44.3 °F 44.6 °F 93% 30.10 in 10.0 mi NNE 4.6 mph - 0.02 in Rain Light Rain
4:55 AM 46.4 °F - 44.6 °F 93% 30.10 in 10.0 mi Calm Calm - 0.02 in   Overcast
5:15 AM 46.4 °F 44.3 °F 44.6 °F 93% 30.10 in 7.0 mi NE 4.6 mph - N/A   Overcast
5:35 AM 46.4 °F 44.3 °F 44.6 °F 93% 30.09 in 5.0 mi NNE 4.6 mph - N/A   Light Drizzle
5:55 AM 46.4 °F 44.3 °F 44.6 °F 93% 30.10 in 5.0 mi North 4.6 mph - 0.02 in Rain Rain
6:15 AM 46.4 °F - 44.6 °F 93% 30.10 in 5.0 mi Calm Calm - 0.02 in Rain Heavy Rain
6:35 AM 46.4 °F 45.2 °F 44.6 °F 93% 30.10 in 5.0 mi NNE 3.5 mph - 0.04 in Rain Rain
6:55 AM 46.4 °F 44.3 °F 44.6 °F 93% 30.10 in 1.8 mi North 4.6 mph - 0.10 in Rain Heavy Rain
7:15 AM 46.4 °F 45.2 °F 44.6 °F 93% 30.11 in 7.0 mi NNW 3.5 mph - 0.01 in Rain Rain
7:35 AM 46.4 °F 45.2 °F 44.6 °F 93% 30.10 in 2.0 mi North 3.5 mph - 0.01 in   Drizzle
7:55 AM 46.4 °F 45.2 °F 44.6 °F 93% 30.10 in 1.8 mi NNE 3.5 mph - 0.01 in   Light Drizzle
8:15 AM 46.4 °F 44.3 °F 44.6 °F 93% 30.09 in 1.8 mi North 4.6 mph - N/A   Overcast
8:35 AM 46.4 °F - 44.6 °F 93% 30.08 in 1.2 mi Calm Calm - N/A   Light Drizzle
8:55 AM 46.4 °F 45.2 °F 44.6 °F 93% 30.06 in 1.8 mi ENE 3.5 mph - N/A   Drizzle
9:15 AM 46.4 °F - 44.6 °F 93% 30.08 in 2.0 mi Calm Calm - N/A   Overcast
9:35 AM 46.4 °F - 44.6 °F 93% 30.08 in 1.5 mi Calm Calm - N/A   Overcast
9:55 AM 46.4 °F 45.2 °F 46.4 °F 100% 30.07 in 1.2 mi North 3.5 mph - N/A   Drizzle
10:15 AM 46.4 °F 43.5 °F 46.4 °F 100% 30.05 in 2.0 mi North 5.8 mph - N/A   Light Drizzle
10:35 AM 46.4 °F 44.3 °F 46.4 °F 100% 30.05 in 5.0 mi North 4.6 mph - 0.01 in   Drizzle
10:55 AM 46.4 °F 44.3 °F 46.4 °F 100% 30.03 in 5.0 mi NNE 4.6 mph - 0.01 in Rain Rain
11:15 AM 46.4 °F 44.3 °F 46.4 °F 100% 30.03 in 3.0 mi NNE 4.6 mph - 0.04 in Rain Heavy Rain
11:35 AM 46.4 °F - 46.4 °F 100% 30.04 in 4.0 mi Calm Calm - 0.10 in Rain Light Rain
11:55 AM 48.2 °F - 46.4 °F 93% 30.03 in 7.0 mi NNW 4.6 mph - 0.10 in Rain Rain
12:15 PM 50.0 °F - 48.2 °F 94% 30.02 in 10.0 mi North 3.5 mph - N/A   Overcast
12:35 PM 50.0 °F - 48.2 °F 94% 30.03 in 10.0 mi Calm Calm - N/A   Overcast
12:55 PM 50.0 °F - 48.2 °F 94% 30.01 in 10.0 mi Calm Calm - N/A   Overcast
1:15 PM 50.0 °F - 50.0 °F 100% 30.00 in 10.0 mi Calm Calm - N/A   Overcast
1:35 PM 50.0 °F - 50.0 °F 100% 29.99 in 3.0 mi Calm Calm - N/A   Overcast
1:55 PM 50.0 °F - 50.0 °F 100% 29.99 in 2.5 mi Calm Calm - N/A   Overcast
2:15 PM 50.0 °F - 50.0 °F 100% 29.98 in 5.0 mi Calm Calm - N/A   Overcast
2:35 PM 50.0 °F - 50.0 °F 100% 29.99 in 4.0 mi Calm Calm - N/A   Overcast
2:55 PM 50.0 °F - 50.0 °F 100% 29.97 in 3.0 mi Calm Calm - N/A   Overcast
3:15 PM 51.8 °F - 50.0 °F 94% 29.97 in 5.0 mi Calm Calm - N/A   Overcast
3:35 PM 51.8 °F - 51.8 °F 100% 29.97 in 7.0 mi Calm Calm - N/A   Overcast
3:55 PM 51.8 °F - 51.8 °F 100% 29.95 in 5.0 mi NNE 3.5 mph - N/A   Overcast
4:15 PM 51.8 °F - 51.8 °F 100% 29.94 in 4.0 mi NE 4.6 mph - N/A   Overcast
4:35 PM 51.8 °F - 51.8 °F 100% 29.93 in 2.0 mi NE 3.5 mph - N/A   Overcast
4:55 PM 51.8 °F - 51.8 °F 100% 29.92 in 1.2 mi Calm Calm - N/A Thunderstorm Overcast
5:15 PM 51.8 °F - 51.8 °F 100% 29.93 in 0.8 mi Calm Calm - N/A   Overcast
5:35 PM 51.8 °F - 50.0 °F 94% 29.94 in 0.8 mi Calm Calm - N/A   Overcast
5:55 PM 51.8 °F - 50.0 °F 94% 29.92 in 0.5 mi Calm Calm - N/A Fog Fog
6:15 PM 51.8 °F - 51.8 °F 100% 29.91 in 0.5 mi NE 3.5 mph - N/A Fog , Thunderstorm Fog
6:35 PM 51.8 °F - 51.8 °F 100% 29.92 in 0.5 mi Calm Calm - N/A Fog Fog
6:55 PM 51.8 °F - 51.8 °F 100% 29.90 in 0.5 mi Calm Calm - N/A Fog Fog
7:15 PM 51.8 °F - 51.8 °F 100% 29.89 in 0.2 mi Calm Calm - N/A Fog Fog
7:35 PM 51.8 °F - 50.0 °F 94% 29.89 in 0.5 mi Calm Calm - N/A Fog Fog
7:55 PM 51.8 °F - 50.0 °F 94% 29.88 in 0.5 mi Calm Calm - N/A Fog , Thunderstorm Fog
8:15 PM 51.8 °F - 50.0 °F 94% 29.86 in 0.5 mi Calm Calm - N/A Fog Fog
8:35 PM 51.8 °F - 50.0 °F 94% 29.87 in 0.8 mi Calm Calm - N/A   Overcast
8:55 PM 51.8 °F - 51.8 °F 100% 29.87 in 0.5 mi Calm Calm - N/A Fog Fog
9:15 PM 51.8 °F - 51.8 °F 100% 29.87 in 0.5 mi Calm Calm - N/A Fog Fog
9:35 PM 51.8 °F - 51.8 °F 100% 29.87 in 0.5 mi Calm Calm - N/A Fog Fog
9:55 PM 51.8 °F - 51.8 °F 100% 29.86 in 0.5 mi Calm Calm - N/A Fog Fog
10:15 PM 51.8 °F - 51.8 °F 100% 29.86 in 0.5 mi Calm Calm - N/A Fog Fog
10:35 PM 51.8 °F - 51.8 °F 100% 29.86 in 0.5 mi Calm Calm - N/A Fog Fog
10:55 PM 51.8 °F - 51.8 °F 100% 29.86 in 0.5 mi Calm Calm - N/A Fog Fog
11:15 PM 51.8 °F - 51.8 °F 100% 29.86 in 0.5 mi WNW 3.5 mph - N/A Fog Fog
11:35 PM 53.6 °F - 53.6 °F 100% 29.87 in 2.0 mi NW 8.1 mph - N/A   Overcast
11:55 PM 51.8 °F - 51.8 °F 100% 29.86 in 4.0 mi SE 4.6 mph - N/A   Overcast